EW7770 Weather Reports


Display with metric or nautical units.
time (UTC)temp
F
wind
direction
speed
MPH
gust
MPH
rain 1hr
in
rain 24hr
in
rain mn
in
humidity
%
barometer
mb
20260504221625 58 315 1.0 4.0 0.00 0.02 0.02 56 1006.1
20260504220625 59 302 3.0 5.0 0.00 0.02 0.02 56 1006.2
20260504215624 60 318 2.0 4.0 0.00 0.02 0.02 56 1005.9
20260504215524 60 311 2.0 4.0 0.00 0.02 0.02 56 1005.9
20260504214524 60 315 3.0 5.0 0.00 0.02 0.02 56 1005.8
20260504214424 60 307 3.0 5.0 0.00 0.02 0.02 57 1005.8
20260504213427 59 315 1.0 2.0 0.00 0.02 0.02 57 1005.8
20260504212426 59 307 3.0 7.0 0.00 0.02 0.02 58 1005.9
20260504211425 59 315 1.0 2.0 0.00 0.02 0.02 58 1005.9
20260504205524 59 275 1.0 2.0 0.00 0.03 0.02 57 1005.7
20260504204523 59 358 0.0 1.0 0.00 0.03 0.02 58 1005.7
20260504203524 59 325 2.0 4.0 0.00 0.03 0.02 58 1005.9
20260504202526 59 287 2.0 4.0 0.00 0.03 0.02 57 1005.7
20260504201525 58 307 2.0 4.0 0.00 0.03 0.02 56 1005.8
20260504200525 56 332 2.0 3.0 0.00 0.03 0.02 55 1005.7
20260504195525 55 302 2.0 3.0 0.00 0.03 0.02 54 1005.7
20260504194525 55 276 1.0 2.0 0.00 0.03 0.02 52 1005.6
20260504193623 55 271 1.0 3.0 0.00 0.03 0.02 51 1005.8
20260504191625 52 273 0.0 2.0 0.02 0.03 0.02 45 1006.0
20260504190723 51 229 3.0 6.0 0.02 0.03 0.02 43 1005.8
20260504185725 50 233 2.0 5.0 0.02 0.04 0.02 44 1005.9
20260504184726 50 205 2.0 4.0 0.02 0.04 0.02 45 1006.1
20260504183725 50 240 2.0 4.0 0.02 0.05 0.02 48 1006.3
20260504182823 51 222 2.0 5.0 0.01 0.04 0.01 51 1006.6
20260504181923 52 252 2.0 6.0 0.01 0.04 0.00 55 1006.6
20260504175923 55 241 2.0 4.0 0.00 0.04 0.00 59 1006.4
20260504173926 55 220 4.0 8.0 0.00 0.05 0.00 60 1006.1
20260504172924 55 228 3.0 8.0 0.00 0.06 0.00 59 1006.1
20260504172022 55 250 2.0 4.0 0.00 0.07 0.00 58 1006.0
20260504171024 56 249 2.0 4.0 0.00 0.08 0.00 56 1005.8
20260504170123 56 207 3.0 7.0 0.00 0.09 0.00 56 1005.7
20260504141026 56 332 1.0 3.0 0.00 0.33 0.00 52 1007.2
20260504130123 51 249 1.0 2.0 0.00 0.42 0.00 56 1007.8
20260504120223 45 337 0.0 0.0 0.00 0.49 0.00 62 1008.0
20260504110326 39 321 1.0 3.0 0.00 0.57 0.00 63 1007.7
20260504100323 35 292 1.0 2.0 0.00 0.67 0.00 56 1006.6
20260504081322 36 315 1.0 3.0 0.00 0.75 0.00 64 1006.0
20260504080324 36 292 1.0 3.0 0.00 0.77 0.00 63 1006.0
20260504045821 39 324 3.0 5.0 0.00 0.87 0.00 65 1004.8
20260504044823 39 320 2.0 4.0 0.00 0.87 0.00 65 1004.8
20260504043823 39 310 3.0 4.0 0.00 0.87 0.00 65 1004.9
20260504042823 39 329 3.0 5.0 0.00 0.87 0.00 65 1004.7
20260504041824 39 328 3.0 5.0 0.00 0.87 0.00 65 1004.8
20260504041724 39 305 3.0 6.0 0.00 0.87 0.00 65 1004.8
20260504040724 39 331 4.0 5.0 0.00 0.87 0.00 65 1004.7
20260504035742 39 318 3.0 5.0 0.00 0.87 0.87 64 1004.7
20260504034743 39 319 3.0 4.0 0.00 0.87 0.87 64 1004.6
20260504032744 40 331 4.0 6.0 0.00 0.87 0.87 64 1004.4
20260504031843 40 327 5.0 9.0 0.00 0.87 0.87 64 1004.3
20260504030843 40 322 5.0 7.0 0.00 0.87 0.87 64 1004.1
20260504025842 40 327 5.0 8.0 0.00 0.87 0.87 64 1004.1
20260504023842 40 325 4.0 7.0 0.00 0.87 0.87 64 1003.9
20260504022942 40 321 5.0 8.0 0.00 0.87 0.87 64 1003.9
20260504021944 40 323 3.0 5.0 0.00 0.87 0.87 63 1003.9
20260504020944 40 303 3.0 6.0 0.00 0.87 0.87 62 1004.0
20260504020041 40 326 4.0 6.0 0.00 0.87 0.87 63 1003.9
20260504014045 41 326 4.0 6.0 0.00 0.87 0.87 63 1003.7
20260504013043 41 302 5.0 9.0 0.00 0.87 0.87 63 1003.5
20260504012043 41 319 5.0 8.0 0.00 0.87 0.87 60 1003.4
20260504011043 42 325 3.0 4.0 0.00 0.87 0.87 57 1003.3
20260504010044 42 320 4.0 7.0 0.00 0.87 0.87 53 1003.2
20260504005043 42 330 4.0 7.0 0.00 0.87 0.87 46 1003.0
20260504004043 41 325 4.0 6.0 0.00 0.87 0.87 40 1002.8
20260504003043 42 317 1.0 2.0 0.00 0.87 0.87 41 1002.6
20260504002142 42 337 2.0 2.0 0.00 0.87 0.87 42 1002.6
20260504000044 42 341 3.0 5.0 0.00 0.87 0.87 42 1002.4
20260503235942 42 335 3.0 4.0 0.00 0.87 0.87 42 1002.5
20260503234943 42 329 3.0 3.0 0.00 0.87 0.87 41 1002.4
20260503233943 42 335 2.0 4.0 0.00 0.87 0.87 40 1002.2
20260503232943 42 337 2.0 3.0 0.00 0.87 0.87 40 1002.0
20260503231943 42 328 2.0 4.0 0.00 0.87 0.87 40 1001.9
20260503230943 42 326 2.0 4.0 0.00 0.87 0.87 39 1001.7
20260503230843 42 344 3.0 5.0 0.00 0.87 0.87 40 1001.6
20260503225941 42 325 3.0 5.0 0.00 0.87 0.87 40 1001.7
20260503224943 42 313 3.0 5.0 0.00 0.87 0.87 40 1001.6
20260503223942 42 336 3.0 5.0 0.00 0.87 0.87 40 1001.6
20260503222943 42 327 4.0 6.0 0.00 0.87 0.87 39 1001.3